Regional Weather Roundup
Issued by NWS

Home | Current Version | Previous Version | Graphics & Text | Print | Product List | Glossary On
Versions: 1 2 3 4 5 6 7 8 9 10 11 12 13 14 15 16 17 18 19 20 21 22 23 24 25 26 27 28 29 30 31 32 33 34 35 36 37 38 39 40 41 42 43 44 45 46 47 48 49 50
000
ASUS43 KLSX 240307
RWRMO

WEATHER SUMMARY FOR MISSOURI
NATIONAL WEATHER SERVICE SPRINGFIELD MO
1000 PM CDT SAT MAY 23 2015

NOTE: "FAIR" INDICATES FEW OR NO CLOUDS BELOW 12,000 FEET WITH NO
       SIGNIFICANT WEATHER AND/OR OBSTRUCTIONS TO VISIBILITY.
       CURRENT SKY AND/OR WEATHER CONDITIONS ARE NOT AVAILABLE FOR
       CHILLICOTHE AND FARMINGTON.

MOZ001>031-035>038-043-044-053-054-240400-
...NORTHERN AND WESTERN MISSOURI...

CITY           SKY/WX    TMP DP  RH WIND       PRES   REMARKS
KANSAS CTY INT LGT RAIN  62  61  96 NE12      30.05F
KANSAS C DTWN  LGT RAIN  63  60  90 E8        30.04S
LEE`S SUMMIT   LGT RAIN  62  59  90 E8        30.05S
ST JOSEPH      RAIN      63  61  93 E7        30.06F FOG
CHILLICOTHE      N/A     67  57  70 SE3       30.10R
KIRKSVILLE     CLOUDY    65  54  67 SE7       30.12R

$$
MOZ066>068-077>081-088>096-101>105-240400-
...SOUTHWEST MISSOURI...

CITY           SKY/WX    TMP DP  RH WIND       PRES   REMARKS
SPRINGFIELD    LGT RAIN  68  59  73 SE17G29   30.02F
JOPLIN         CLOUDY    67  63  87 SE14G26   29.96F

$$
MOZ032>034-039>042-045>050-055>058-069>072-240400-
...CENTRAL MISSOURI...

CITY           SKY/WX    TMP DP  RH WIND       PRES   REMARKS
COLUMBIA       CLOUDY    67  55  65 SE9       30.11S
JEFFERSON CITY CLOUDY    68  54  60 E9        30.10F
ROLLA          CLOUDY    64  51  62 SE9       30.11F
SEDALIA        CLOUDY    64  58  80 SE10      30.07F
WARRENSBURG    LGT RAIN  61  59  94 E6        30.05S
OSAGE BEACH    CLOUDY    66  55  68 E5        30.09F

$$
MOZ051-052-059>065-240400-
...EAST CENTRAL MISSOURI...

CITY           SKY/WX    TMP DP  RH WIND       PRES   REMARKS
ST LOUIS INTL  CLOUDY    72  49  44 SE9       30.16F
SPIRIT OF STL  CLOUDY    66  52  60 CALM      30.15S
ST CHARLES     CLOUDY    69  52  54 SE8       30.15F

$$
MOZ072>076-082>087-097>100-106>115-240400-
...SOUTH CENTRAL AND SOUTHEAST MISSOURI...

CITY           SKY/WX    TMP DP  RH WIND       PRES   REMARKS
CAPE GIRARDEAU MOCLDY    66  57  72 CALM      30.17R
FARMINGTON     CLOUDY    64  52  63 SE3       30.21S
POPLAR BLUFF   PTCLDY    68  59  73 CALM      30.15R
WEST PLAINS    CLOUDY    66  54  65 SE8       30.13F

$$


USA.gov is the U.S. government's official web portal to all federal, state and local government web resources and services.